This demonstration page uses our WeatherBlox Daily Observations layout. Learn more.

Left ArrowRight Arrow

Hourly Observations for April 11, 2021

Temp ( °F °C ) Dew Point ( °F °C ) Humidity (%) Winds ( mph kmh ) Pressure ( in mb ) Visibility ( mi km ) Precip ( " mm )
12:51 am 00:51 Clear 60 15.6 13 -10.6 16 16 NNE 7 11 29.67 1005 10 16.0934 0 0
1:51 am 01:51 Clear 56 13.3 14 -10 19 19 ESE 5 7 29.67 1005 10 16.0934 0 0
2:51 am 02:51 Clear 54 12.2 11 -11.7 18 18 E 3 6 29.67 1005 10 16.0934 0 0
3:51 am 03:51 Clear 53 11.7 11 -11.7 18 18 Calm 29.68 1005 10 16.0934 0 0
4:51 am 04:51 Clear 51 10.6 11 -11.7 20 20 SSE 6 9 29.69 1006 10 16.0934 0 0
5:51 am 05:51 Clear 49 9.4 11 -11.7 21 21 SE 5 7 29.71 1006 10 16.0934 0 0
6:51 am 06:51 Sunny 54 12.2 12 -11.1 19 19 E 3 6 29.73 1007 10 16.0934 0 0
7:51 am 07:51 Sunny 62 16.7 16 -8.9 17 17 S 3 6 29.73 1007 10 16.0934 0 0
8:51 am 08:51 Sunny 70 21.1 19 -7.2 14 14 SSE 7 11 29.73 1007 10 16.0934 0 0
9:51 am 09:51 Sunny 74 23.3 17 -8.3 11 11 Calm 29.73 1007 10 16.0934 0 0
10:51 am 10:51 Sunny 79 26.1 17 -8.3 10 10 undefined N/A 29.71 1006 10 16.0934 0 0
11:51 am 11:51 Sunny 81 27.2 18 -7.8 9 9 undefined N/A 29.68 1005 10 16.0934 0 0
12:51 pm 12:51 Sunny 83 28.3 19 -7.2 9 9 WSW 8 13 29.65 1004 10 16.0934 0 0
1:51 pm 13:51 Sunny 84 28.9 18 -7.8 8 8 W 8 13 29.62 1003 10 16.0934 0 0
2:51 pm 14:51 Sunny 86 30 18 -7.8 8 8 NW 9 15 29.59 1002 10 16.0934 0 0
3:51 pm 15:51 Sunny 87 30.6 18 -7.8 8 8 WNW 20 31 29.57 1001 10 16.0934 0 0
4:51 pm 16:51 Sunny 86 30 17 -8.3 8 8 WNW 17 28 29.57 1001 10 16.0934 0 0
5:51 pm 17:51 Sunny 83 28.3 17 -8.3 8 8 NW 16 26 29.58 1002 10 16.0934 0 0
6:51 pm 18:51 Clear 79 26.1 17 -8.3 10 10 NW 10 17 29.58 1002 10 16.0934 0 0
7:51 pm 19:51 Clear 78 25.6 18 -7.8 10 10 NW 10 17 29.59 1002 10 16.0934 0 0
8:51 pm 20:51 Clear 75 23.9 17 -8.3 11 11 NNW 8 13 29.6 1003 10 16.0934 0 0
9:51 pm 21:51 Clear 70 21.1 19 -7.2 14 14 WNW 10 17 29.62 1003 10 16.0934 0 0
10:51 pm 22:51 Clear 67 19.4 18 -7.8 15 15 NW 7 11 29.62 1003 10 16.0934 0 0
11:51 pm 23:51 Clear 64 17.8 17 -8.3 16 16 NW 8 13 29.64 1004 10 16.0934 0 0

Powered by AerisWeather